Weather observations for the past three days for
Myrtle Beach International Airport
Imperial (Metric)
Date Time (edt) Wind (mph) Vis. (mi.) Weather Sky Cond. Temperature (ºF) Relative Humidity Wind Chill (°F) Heat Index (°F) Pressure Precipitation (in)
Air Dwpt 6 hour altimeter (in) sea level (mb) 1 hr 3 hr 6 hr
Max. Min.
03 03:53 Calm 10.00 Fair CLR 78.1 75.9 93% 81 30.04 1017.1
03 02:53 Calm 10.00 Fair CLR 79 75.9 90% 83 30.04 1017.0
03 01:53 S 5 10.00 Fair CLR 80.1 77 82.9 80.1 90% 86 30.04 1017.2
03 00:53 S 6 10.00 Fair CLR 82 77 85% 90 30.04 1017.2
02 23:53 S 8 10.00 Fair CLR 82 77 85% 90 30.03 1017.0
02 22:53 S 8 10.00 Fair CLR 82 78.1 88% 91 30.07 1018.2
02 21:53 S 8 10.00 Fair CLR 82 77 85% 90 30.08 1018.5
02 20:53 S 8 10.00 Fair CLR 82 77 85% 90 30.06 1017.8
02 19:53 S 8 10.00 Fair CLR 82.9 77 89.1 82.9 82% 92 30.04 1017.2
02 18:53 S 9 10.00 Fair CLR 84.9 77 77% 95 30.04 1017.1
02 17:53 S 12 10.00 Fair CLR 86 75.9 72% 96 30.03 1017.0
02 16:53 S 10 10.00 Fair CLR 87.1 75 67% 97 30.04 1017.3
02 15:53 S 13 10.00 Fair CLR 87.1 77 72% 99 30.06 1017.9
02 14:53 S 13 10.00 Fair CLR 89.1 78.1 70% 103 30.07 1018.2
02 13:53 S 10 10.00 Fair CLR 88 79 91 78.1 75% 103 30.07 1018.3
02 12:53 S 9 10.00 Fair CLR 89.1 78.1 70% 103 30.08 1018.6
02 11:53 Vrbl 3 10.00 Fair CLR 90 73 58% 98 30.09 1018.8
02 10:53 N 3 10.00 Fair CLR 88 71.1 57% 94 30.09 1018.8
02 09:53 Vrbl 3 10.00 Fair CLR 84.9 75 72% 93 30.09 1018.9
02 08:53 NW 3 9.00 Fair CLR 81 78.1 91% 89 30.1 1019.3
02 07:53 Vrbl 3 10.00 Fair CLR 78.1 77 79 75.9 97% 81 30.1 1019.2
02 06:53 NW 3 10.00 Fair CLR 75.9 75 97% 75 30.09 1018.9
02 05:53 Calm 10.00 Fair CLR 75.9 75.9 100% 75 30.08 1018.5
02 04:53 Calm 10.00 Fair CLR 77 75.9 96% 78 30.08 1018.4
02 03:53 NW 3 10.00 NULL NULL 75.9 75.9 100% 75 30.07 1018.1
02 02:53 N 3 10.00 Fair CLR 77 75.9 96% 78 30.07 1018.2
02 01:53 Calm 10.00 Fair CLR 79 75.9 82 79 90% 83 30.07 1018.2
02 00:53 S 3 10.00 Fair CLR 80.1 75.9 87% 85 30.07 1018.3
01 23:53 S 7 10.00 Fair CLR 80.1 77 90% 86 30.06 1018.0
01 22:53 S 7 10.00 Fair CLR 81 77 88% 88 30.06 1018.0
01 20:53 S 7 10.00 Fair CLR 81 75 82% 87 30.06 1017.8
01 19:53 S 8 10.00 Fair CLR 81 75 87.1 81 82% 87 30.05 1017.5
01 18:53 S 8 10.00 Fair CLR 84 75.9 77% 93 30.06 1017.9
01 17:53 S 9 10.00 Fair CLR 84.9 75.9 75% 94 30.06 1017.8
01 15:53 SE 9 10.00 Fair CLR 86 77 75% 97 30.06 1018.0
01 14:53 S 10 10.00 Fair CLR 86 78.1 77% 98 30.08 1018.4
01 13:53 SE 10 10.00 Fair CLR 87.1 77 89.1 75.9 72% 99 30.08 1018.7
01 12:53 SE 7 10.00 A Few Clouds FEW038 88 75 66% 98 30.09 1019.0
01 11:53 Vrbl 5 10.00 Fair CLR 89.1 73.9 61% 98 30.11 1019.4
01 10:53 N 8 10.00 Fair CLR 86 73.9 67% 94 30.12 1019.9
01 09:53 NW 5 10.00 Fair CLR 82 75 79% 89 30.12 1019.7
01 08:53 N 6 10.00 NULL NULL 77 75.9 96% 78 30.12 1019.8
01 07:53 N 5 1.00 Fog/Mist NULL 75.9 75.9 75.9 73.9 100% 75 30.11 1019.4
01 05:53 NW 3 10.00 Fair CLR 75 75 100% 72 30.08 1018.4
01 04:53 Calm 10.00 Fair CLR 75 75 100% 72 30.08 1018.4
01 03:53 NW 5 10.00 Fair CLR 75.9 75 97% 75 30.08 1018.6
01 02:53 NW 3 10.00 Fair CLR 75.9 75 97% 75 30.09 1018.8
01 01:53 Calm 10.00 Fair CLR 77 75.9 82 77 96% 78 30.09 1019.0
01 00:53 Calm 10.00 Fair CLR 78.1 77 97% 81 30.11 1019.5
31 23:53 Calm 10.00 Fair CLR 79 77 94% 83 30.11 1019.4
31 22:53 SE 5 10.00 Fair CLR 80.1 77 90% 86 30.1 1019.3
31 21:53 SE 5 10.00 Fair CLR 81 75.9 85% 87 30.1 1019.2
31 20:53 SE 7 10.00 Fair CLR 81 75.9 85% 87 30.09 1018.9
31 19:53 SE 7 10.00 NULL NULL 82 75.9 84.9 82 82% 89 30.09 1018.7
31 18:53 SE 7 10.00 Fair CLR 82 77 85% 90 30.09 1018.8
31 17:53 SE 8 10.00 Fair CLR 84 77 80% 94 30.08 1018.5
31 16:53 SE 8 10.00 Fair CLR 84 77 80% 94 30.08 1018.6
31 15:53 SE 9 10.00 Fair CLR 84 75.9 77% 93 30.08 1018.6
31 14:53 SE 9 10.00 Fair CLR 84 75.9 77% 93 30.1 1019.3
31 13:53 SE 9 9.00 Fair CLR 86 75.9 86 75.9 72% 96 30.13 1020.1
31 12:53 SE 9 10.00 Fair CLR 84.9 77 77% 95 30.14 1020.5
31 11:53 SE 7 10.00 Overcast FEW021 BKN035 OVC043 86 78.1 77% 98 30.15 1020.9
31 10:53 NE 3 10.00 A Few Clouds FEW019 82.9 75 77% 90 30.13 1020.3
31 09:53 N 8 10.00 Partly Cloudy SCT013 82 75.9 82% 89 30.13 1020.2
31 08:53 N 6 10.00 Fair CLR 79 77 94% 83 30.13 1020.2
31 07:53 N 6 10.00 Overcast OVC003 75.9 75 77 75.9 97% 75 30.12 1019.8
31 06:53 N 8 10.00 Mostly Cloudy BKN003 75.9 75 97% 75 30.11 1019.6
31 05:53 N 3 10.00 Fair CLR 75.9 75 97% 75 30.1 1019.2
31 04:53 Calm 10.00 Fair CLR 75.9 75.9 100% 75 30.09 1019.0
Date Time (edt) Wind (mph) Vis. (mi.) Weather Sky Cond. Air Dwpt Max. Min. Relative Humidity Wind Chill (°F) Heat Index (°F) altimeter (in) sea level (mb) 1 hr 3 hr 6 hr
6 hour
Temperature (ºF) Pressure Precipitation (in)